Wind_Speed
13 15 16 17 19 19 20 18 25 32 32 42 46 47 47 49 50 51 53 49 46 43 39 38 41 46 50 53 57 59 61 65 67 69 70 71 74 75 76 77 78 80 81
14 15 16 17 20 24 24 25 30 34 38 45 50 51 52 51 51 52 49 46 42 42 46 48 52 56 58 61 63 65 68 69 72 74 77 80 81 80 83 85 86 87 87
18 20 21 22 26 29 32 35 36 37 42 47 48 51 53 56 56 52 52 49 48 49 52 54 56 58 61 63 67 70 73 77 80 83 85 88 89 91 95 97 98 95 93
21 22 22 25 28 30 33 33 35 38 43 48 47 46 55 54 53 50 49 48 51 53 55 57 60 62 66 72 76 79 82 86 89 89 90 94 95 100 106 108 106 101 99
21 22 24 27 26 26 31 35 36 41 48 44 42 52 51 47 48 51 51 53 55 57 59 62 65 69 75 79 83 86 90 93 94 95 97 98 103 110 110 101 91 89 86
19 22 25 27 28 27 34 32 43 35 40 51 51 50 49 48 49 50 53 56 57 61 64 67 72 77 82 86 88 91 94 94 95 96 100 109 109 95 83 76 70 64 60
19 22 24 25 26 33 35 36 42 50 53 52 49 48 48 48 50 53 55 58 61 63 67 72 78 82 86 89 92 93 96 97 98 102 109 105 85 70 62 59 57 54 54
17 19 22 25 28 32 36 39 42 45 46 48 50 50 49 52 54 56 59 61 63 68 72 77 82 86 90 93 94 95 99 102 104 107 92 75 66 54 50 55 56 59 55
15 18 21 23 26 30 33 37 41 43 44 48 49 52 53 54 57 58 60 63 68 72 76 83 86 91 94 95 97 99 101 102 94 79 71 62 49 46 53 57 57 52 38
17 20 23 26 29 32 36 39 42 45 47 49 51 52 55 57 59 61 64 69 74 78 84 89 92 96 96 96 98 101 97 86 72 65 59 51 49 51 53 56 48 49 47
21 23 26 28 30 33 37 39 41 44 47 51 53 55 57 59 61 64 69 75 79 84 89 92 94 94 94 97 99 92 76 62 53 44 40 39 41 44 44 46 49 49 50
26 28 31 33 35 39 41 43 45 47 50 53 56 57 58 60 64 68 74 79 84 89 91 92 93 93 96 97 85 68 53 43 41 42 42 41 42 44 46 46 48 50 48
31 34 38 40 42 43 45 46 47 49 52 54 57 58 59 63 67 73 78 83 87 89 90 91 92 94 93 80 63 48 43 40 42 43 42 42 45 45 47 48 45 45 44
35 37 40 43 45 47 48 49 49 50 54 57 58 59 63 67 72 76 81 85 87 88 89 91 93 91 76 60 46 41 39 40 42 44 44 45 46 47 45 42 40 38 39
38 40 43 46 48 49 50 51 52 54 56 58 59 63 66 71 75 80 84 84 87 88 90 93 90 74 60 47 39 38 38 41 45 46 45 45 47 43 41 39 35 39 41
43 45 47 48 49 50 52 53 55 56 57 59 62 66 70 75 79 82 83 85 87 89 91 88 75 61 49 39 37 37 39 42 46 46 43 44 44 39 36 33 37 38 40
45 48 50 51 51 52 53 55 56 57 59 61 64 69 74 78 79 81 84 86 88 90 86 74 63 51 41 35 36 37 39 42 47 45 43 44 41 37 31 31 34 36 40
49 50 52 52 53 53 55 56 58 59 61 64 68 72 76 78 80 84 85 87 89 84 74 63 53 43 34 34 35 36 39 43 46 44 44 42 35 34 28 30 31 34 38
51 51 52 53 54 55 56 58 59 60 63 67 71 74 77 80 83 83 85 88 82 73 66 55 45 37 32 33 33 35 38 42 43 43 43 37 32 29 25 27 27 32 36
51 52 53 54 56 58 58 58 60 62 66 70 73 75 80 83 82 84 86 80 72 69 59 47 39 31 30 31 31 33 37 41 41 42 39 32 30 26 24 24 25 30 34
52 53 54 56 57 57 57 62 63 66 70 72 75 80 84 83 83 85 81 71 68 64 51 41 34 28 29 29 30 33 37 40 39 38 34 26 28 25 22 23 24 27 31
54 55 56 57 57 59 60 64 68 70 74 76 80 82 84 83 84 81 71 66 66 57 45 36 30 26 27 27 29 32 36 37 37 36 31 24 25 23 20 21 22 25 28
56 56 57 59 62 63 65 70 73 75 78 81 82 83 85 85 80 72 64 64 60 49 39 33 27 25 25 27 28 30 34 35 36 34 31 24 24 24 19 19 21 22 24
58 57 60 64 65 64 68 72 76 78 81 82 84 85 84 78 72 63 61 60 51 41 34 30 25 25 25 26 26 28 31 32 34 33 31 27 24 24 20 18 18 20 20
56 58 64 66 67 68 72 74 80 83 82 83 84 81 77 72 64 59 59 53 43 36 32 27 24 24 24 24 24 26 27 28 31 32 32 29 26 25 23 17 17 17 17
59 61 64 65 69 72 72 80 85 84 83 81 79 77 72 64 59 57 53 45 38 34 29 25 23 22 22 22 23 24 25 26 28 30 31 30 26 23 22 20 17 16 16
Wind_Direction
271 269 267 273 279 284 280 280 269 273 282 290 303 309 312 314 316 316 317 314 309 304 299 298 302 306 308 308 307 305 303 302 301 301 299 297 295 293 291 290 288 286 283
279 282 290 295 294 295 292 285 285 288 298 304 304 309 310 311 310 308 310 306 308 309 312 312 311 310 308 306 306 305 304 303 302 300 300 300 299 297 295 294 291 287 283
288 292 299 293 293 288 287 292 293 298 302 302 303 306 312 314 314 315 312 311 310 310 309 306 303 301 302 303 303 302 302 303 303 302 300 299 298 298 299 298 295 291 286
291 295 306 296 297 295 288 299 295 296 300 301 294 300 308 308 306 305 304 305 304 302 300 299 300 302 304 306 305 305 305 305 304 304 302 302 299 299 299 297 293 289 286
300 301 294 294 289 291 285 292 298 298 308 301 295 300 303 299 299 300 298 296 296 297 300 302 304 306 307 308 308 307 307 306 306 304 303 301 300 299 298 295 287 283 279
290 288 289 291 291 296 295 295 290 293 294 294 296 300 303 300 296 294 292 294 297 301 304 306 307 309 310 310 309 307 306 304 303 303 304 303 303 300 294 291 286 282 278
293 296 299 300 295 292 294 291 290 291 296 299 302 300 294 291 293 295 297 300 302 304 308 309 309 310 310 309 307 305 304 305 307 308 307 306 301 298 294 290 290 290 285
303 305 309 313 311 307 304 302 300 299 299 302 302 295 292 295 297 299 301 302 305 308 309 309 310 310 309 308 306 306 308 310 311 310 307 302 300 298 301 295 296 299 294
321 318 316 312 310 308 306 305 303 302 303 299 294 294 297 298 299 301 303 306 309 308 309 311 311 310 309 309 311 311 311 312 312 308 305 304 300 292 296 299 299 301 297
317 315 316 312 309 309 310 310 307 304 300 298 298 299 300 302 304 305 307 308 308 309 312 312 312 312 312 312 313 313 315 314 310 309 308 304 297 293 298 301 300 298 299
312 309 308 308 306 304 304 306 306 305 304 302 302 303 303 304 305 307 308 309 310 312 313 312 313 313 314 314 314 315 313 313 313 315 316 314 309 304 303 300 299 299 299
309 307 308 309 310 311 311 310 310 311 308 307 305 303 304 305 307 308 309 311 313 313 312 314 316 316 315 314 316 314 315 315 317 317 314 311 308 306 304 302 303 301 300
311 314 314 312 312 312 311 310 310 311 308 305 304 304 306 307 307 309 312 312 311 313 315 316 316 315 315 316 315 314 312 316 320 318 314 312 310 309 305 305 305 303 301
308 311 312 312 311 310 310 310 310 309 307 306 306 306 307 308 309 310 310 311 314 315 317 317 315 316 317 315 312 311 312 319 321 319 315 315 314 311 310 308 306 306 304
303 306 308 309 308 309 310 309 307 309 310 309 308 307 307 308 309 310 312 315 316 317 318 316 317 318 316 311 309 308 313 317 322 321 319 317 316 315 314 312 311 309 309
301 302 304 306 307 309 308 307 308 310 310 309 307 306 307 308 310 312 315 316 318 318 316 318 319 317 313 309 307 309 312 318 322 322 320 319 318 316 314 313 314 315 316
297 297 301 304 307 308 307 308 309 309 309 307 307 308 309 310 313 315 317 319 319 317 318 320 318 315 310 307 307 309 314 319 322 323 322 321 317 318 314 314 316 319 323
296 298 300 305 307 306 306 308 308 308 308 307 308 309 313 316 318 319 319 319 318 319 321 320 316 312 307 306 308 311 316 320 324 323 323 321 316 318 315 318 320 326 328
297 299 301 305 306 305 306 306 308 307 307 308 311 314 316 319 320 319 319 318 320 320 321 317 313 310 305 306 308 311 317 322 324 324 324 320 317 318 316 319 326 331 334
299 301 304 304 303 304 306 308 307 308 309 312 314 316 319 321 319 319 319 320 319 321 320 315 311 306 304 307 309 315 320 325 326 328 326 320 319 318 317 320 327 335 340
302 302 302 302 304 305 306 305 306 310 313 313 314 316 320 321 320 320 320 318 319 320 318 313 308 304 305 309 313 318 323 328 329 331 329 319 321 317 316 322 326 335 344
300 302 304 304 305 306 305 307 310 309 314 314 314 317 322 321 321 320 319 318 320 319 316 311 306 303 306 311 314 319 325 329 332 335 334 325 328 319 313 324 327 333 344
302 303 304 305 307 308 306 307 305 309 313 314 317 320 322 320 319 318 318 319 320 318 314 309 303 300 304 310 315 320 326 331 336 340 339 333 333 330 313 321 330 332 341
305 305 306 307 308 307 306 301 303 310 314 315 318 321 320 319 319 319 320 321 319 317 313 308 302 299 303 310 315 320 327 334 339 344 344 339 335 338 321 313 324 332 337
306 302 303 306 307 305 299 300 308 313 314 317 320 320 319 319 320 320 322 321 318 315 311 305 302 300 302 309 314 320 326 333 339 346 348 345 336 333 335 317 313 324 331
304 304 304 305 303 298 298 309 311 312 315 318 318 319 319 320 320 323 323 320 317 313 309 302 300 299 302 308 313 317 324 331 337 346 350 349 345 333 334 331 313 310 320
Height
5811 5810 5810 5810 5809 5808 5806 5804 5802 5797 5792 5788 5783 5779 5776 5772 5768 5765 5761 5758 5755 5751 5748 5744 5739 5735 5731 5726 5722 5717 5712 5707 5701 5695 5690 5684 5679 5674 5669 5665 5661 5657 5654
5808 5806 5806 5804 5803 5801 5799 5799 5797 5794 5789 5782 5778 5772 5768 5765 5763 5760 5755 5751 5745 5740 5734 5730 5726 5721 5716 5711 5705 5699 5694 5688 5682 5675 5667 5660 5654 5649 5643 5639 5634 5629 5626
5803 5801 5800 5799 5798 5795 5793 5790 5788 5786 5782 5777 5770 5763 5757 5752 5749 5744 5740 5736 5732 5729 5725 5721 5717 5711 5706 5700 5693 5686 5679 5670 5661 5653 5644 5635 5628 5619 5614 5607 5599 5593 5589
5797 5795 5795 5793 5790 5788 5786 5783 5781 5779 5775 5770 5764 5759 5754 5749 5744 5739 5735 5730 5726 5722 5716 5711 5705 5698 5691 5684 5674 5665 5656 5647 5637 5628 5618 5607 5597 5587 5583 5574 5568 5564 5554
5791 5791 5789 5787 5785 5782 5779 5776 5773 5769 5765 5761 5756 5752 5749 5744 5738 5732 5728 5723 5718 5711 5704 5697 5690 5682 5673 5664 5654 5643 5632 5622 5612 5601 5592 5583 5572 5560 5546 5538 5532 5526 5521
5786 5785 5783 5780 5778 5775 5772 5769 5766 5761 5757 5753 5748 5743 5738 5732 5727 5722 5718 5712 5705 5697 5690 5682 5673 5663 5653 5643 5633 5622 5611 5600 5590 5578 5565 5553 5539 5526 5512 5502 5496 5498 5497
5780 5778 5776 5774 5772 5768 5766 5762 5759 5754 5749 5744 5738 5733 5729 5724 5718 5712 5706 5698 5691 5684 5676 5666 5656 5646 5635 5625 5614 5602 5589 5576 5561 5546 5532 5517 5505 5497 5489 5480 5474 5475 5478
5775 5773 5771 5768 5765 5762 5758 5755 5750 5745 5740 5734 5729 5723 5718 5713 5707 5700 5693 5686 5678 5669 5660 5651 5640 5628 5616 5604 5591 5578 5562 5547 5531 5518 5504 5493 5483 5477 5472 5465 5460 5456 5456
5772 5769 5767 5764 5760 5756 5752 5747 5741 5735 5729 5724 5718 5713 5707 5701 5695 5688 5680 5672 5663 5655 5646 5635 5623 5609 5596 5580 5565 5551 5536 5520 5504 5492 5482 5474 5467 5463 5458 5453 5447 5440 5439
5767 5764 5761 5757 5753 5749 5743 5738 5731 5725 5719 5713 5708 5702 5696 5689 5682 5674 5666 5659 5650 5639 5627 5614 5600 5585 5570 5556 5542 5526 5508 5495 5483 5473 5465 5458 5454 5450 5444 5438 5432 5427 5424
5761 5758 5754 5750 5745 5740 5735 5729 5723 5717 5711 5704 5697 5691 5684 5676 5669 5660 5652 5642 5631 5620 5607 5593 5579 5564 5549 5533 5518 5503 5489 5478 5470 5462 5455 5448 5443 5437 5431 5426 5420 5414 5409
5755 5751 5747 5741 5736 5730 5725 5718 5712 5706 5699 5693 5686 5678 5671 5663 5654 5645 5636 5625 5613 5601 5588 5575 5559 5543 5528 5514 5499 5485 5475 5468 5461 5454 5447 5440 5434 5428 5421 5414 5408 5401 5395
5746 5741 5736 5731 5726 5720 5714 5708 5702 5695 5688 5681 5673 5666 5657 5649 5640 5630 5620 5608 5597 5584 5570 5555 5541 5526 5510 5494 5481 5472 5465 5459 5452 5445 5438 5431 5424 5417 5410 5403 5395 5389 5383
5736 5731 5726 5721 5715 5710 5704 5697 5690 5683 5676 5668 5661 5653 5644 5635 5626 5616 5605 5593 5579 5566 5551 5537 5522 5506 5491 5479 5470 5463 5457 5450 5443 5436 5428 5420 5413 5405 5398 5392 5385 5379 5373
5727 5721 5715 5710 5704 5698 5692 5685 5678 5671 5663 5655 5648 5640 5632 5623 5612 5601 5588 5575 5561 5547 5533 5518 5502 5489 5477 5469 5461 5455 5449 5442 5435 5426 5418 5410 5402 5394 5387 5381 5376 5370 5363
5716 5711 5705 5699 5693 5687 5681 5673 5666 5658 5651 5643 5636 5628 5619 5608 5596 5583 5571 5558 5544 5529 5515 5499 5485 5474 5465 5459 5453 5447 5441 5434 5426 5418 5410 5401 5392 5385 5379 5373 5367 5360 5353
5706 5701 5695 5689 5683 5676 5668 5661 5653 5646 5639 5631 5622 5613 5603 5591 5579 5567 5554 5540 5527 5512 5495 5481 5471 5462 5455 5450 5444 5439 5432 5425 5417 5408 5400 5392 5383 5377 5372 5367 5360 5352 5344
5695 5690 5684 5678 5671 5664 5657 5649 5642 5634 5626 5618 5608 5598 5587 5575 5563 5550 5536 5522 5508 5492 5478 5467 5458 5451 5445 5441 5436 5430 5424 5417 5408 5399 5391 5383 5376 5370 5366 5360 5354 5347 5338
5683 5677 5672 5666 5658 5651 5644 5637 5629 5621 5612 5604 5593 5583 5572 5559 5545 5533 5519 5503 5489 5476 5465 5455 5447 5441 5436 5432 5428 5423 5416 5409 5400 5391 5383 5375 5369 5364 5360 5355 5349 5342 5332
5671 5665 5659 5653 5646 5639 5631 5623 5615 5607 5598 5588 5578 5567 5555 5543 5529 5515 5501 5487 5474 5463 5453 5444 5437 5432 5428 5425 5420 5415 5408 5401 5393 5384 5375 5367 5362 5358 5354 5349 5344 5338 5329
5659 5653 5646 5640 5632 5625 5617 5610 5602 5592 5582 5572 5561 5550 5539 5526 5512 5498 5485 5472 5461 5450 5441 5434 5428 5424 5420 5416 5412 5407 5401 5394 5386 5377 5369 5362 5357 5352 5349 5344 5339 5333 5326
5646 5640 5633 5626 5619 5611 5604 5597 5587 5577 5566 5556 5545 5534 5521 5509 5495 5482 5470 5459 5448 5438 5429 5423 5419 5416 5413 5409 5405 5400 5394 5387 5379 5371 5363 5358 5353 5347 5344 5340 5335 5330 5324
5633 5626 5620 5612 5605 5597 5589 5581 5571 5562 5551 5540 5529 5518 5505 5494 5481 5469 5457 5447 5435 5426 5420 5415 5411 5409 5406 5402 5398 5393 5387 5380 5373 5366 5359 5353 5348 5343 5339 5336 5332 5327 5322
5618 5611 5605 5598 5590 5582 5574 5565 5556 5546 5534 5524 5513 5502 5490 5478 5466 5454 5444 5434 5424 5417 5411 5407 5403 5401 5399 5395 5392 5387 5381 5375 5368 5362 5354 5348 5344 5340 5335 5332 5329 5325 5321
5605 5599 5592 5584 5576 5567 5558 5549 5540 5529 5519 5508 5497 5486 5475 5463 5452 5442 5432 5422 5414 5408 5403 5399 5396 5394 5391 5389 5385 5381 5376 5371 5365 5358 5351 5345 5339 5335 5331 5328 5325 5323 5319
5592 5585 5577 5569 5560 5551 5542 5533 5523 5514 5504 5493 5482 5471 5459 5448 5439 5430 5421 5412 5405 5400 5396 5392 5389 5387 5384 5382 5379 5375 5371 5366 5361 5356 5349 5343 5338 5332 5327 5323 5321 5319 5317